[[{"header":{"parameterUnit":"m.s-1","parameterCategory":1,"la1":30.2991,"la2":30.254,"lo1":-89.0895,"lo2":-89.0444,"dy":0.0017,"dx":0.0017,"nx":28,"ny":28,"refTime":"2024-07-13T21:00:00:Z","depth":0,"parameterNumber":2,"parameterNumberName":"U-component_of_WINDS"},"data":[0,0,0,0,0,0,0,0,0,0,0,0,0,0,0,0,0,0,0,0,0,0,0,0,0,0,0,0,0,0,0,0,0,0,0,0,0,0,0,0,0,0,0,0,0,0,0,0,0,0,0,0,0,0,0,0,0,0,0.5416,0.5417,0,0.5439,0.5439,0.5439,0.5308,0.5304,0.53,0.5297,0.5334,0.5338,0.5343,0,0,0,0,0,0,0,0,0,0,0,0,0,0.527,0.5273,0.5416,0.5417,0.5417,0.5439,0.5439,0.5439,0.5309,0.5304,0.5299,0.5295,0.5332,0.5338,0.5343,0,0,0,0,0,0,0,0,0,0,0,0,0,0.5318,0.5275,0.5416,0.5354,0.5348,0.5439,0.5439,0.544,0.5309,0.5304,0.5298,0.5293,0.5331,0.5337,0.5344,0.55,0,0,0.5365,0.5368,0,0,0,0,0,0,0,0,0.5315,0.5323,0.5363,0.5358,0.5352,0.5364,0.5401,0.546,0.5311,0.5325,0.5297,0.529,0.535,0.5355,0.5372,0.5502,0.5503,0.5365,0.5369,0.5372,0.5374,0,0,0,0,0,0,0,0.5312,0.5322,0.5426,0.5364,0.5357,0.5328,0.5328,0.5412,0.537,0.5323,0.5314,0.5317,0.5346,0.5366,0.5372,0.5504,0.5365,0.5371,0.5375,0.5378,0.5761,0.5767,0,0,0,0,0,0,0.5315,0.532,0.5425,0.5426,0.5319,0.5335,0.5336,0.5367,0.5368,0.5362,0.5322,0.5311,0.5357,0.5364,0.5373,0.5555,0.5372,0.5379,0.5383,0.5755,0.5762,0.5769,0,0,0,0,0,0,0.5313,0.5326,0.5424,0.537,0.538,0.5344,0.538,0.537,0.5389,0.5367,0.536,0.5349,0.5352,0.5363,0.5468,0.5554,0.5382,0.5388,0.5748,0.5757,0.5766,0.5921,0,0,0,0,0,0,0.5309,0.5326,0.5383,0.5372,0.5384,0.5517,0.5385,0.5375,0.54,0.5386,0.5391,0.5386,0.5349,0.5458,0.5475,0.5561,0.5393,0.574,0.5752,0.5763,0.5908,0.5935,0.5957,0,0,0,0,0,0.5304,0.5429,0.5386,0.54,0.5453,0.5522,0.5529,0.5479,0.5407,0.5466,0.545,0.5386,0.5541,0.547,0.5487,0.5577,0.5735,0.5749,0.5762,0.5897,0.5929,0.5956,0,0,0,0,0,0,0.5457,0.5427,0.5379,0.5503,0.5515,0.5499,0.5572,0.5515,0.5551,0.5537,0.5478,0.548,0.5596,0.5596,0.5518,0.5727,0.5626,0.5644,0.5723,0.5753,0.5777,0.5777,0.5399,0,0,0,0,0,0.5504,0.5558,0.553,0.5643,0.565,0.561,0.5638,0.5598,0.561,0.5616,0.5609,0.5627,0.5679,0.5715,0.5762,0.5906,0.5906,0.5975,0.6,0.602,0.6038,0.6113,0.6144,0.5814,0.5814,0.5814,0,0,0.5604,0.5594,0.5633,0.5673,0.5677,0.5738,0.5616,0.5686,0.5731,0.5628,0.5726,0.5721,0.5737,0.5861,0.5916,0.5865,0.6128,0.6037,0.6054,0.606,0.6131,0.6162,0.619,0.5823,0.5822,0.582,0,0,0.5817,0.5814,0.5907,0.5912,0.5918,0.5889,0.5912,0.5903,0.5894,0.5989,0.5913,0.5967,0.6059,0.6073,0.6092,0.6305,0.6248,0.6322,0.6451,0.6526,0.6552,0.6575,0.6653,0.6681,0.6339,0.6339,0.6339,0,0.5943,0.6027,0.5963,0.6037,0.6057,0.5959,0.6055,0.6064,0.6088,0.6106,0.6047,0.6157,0.6161,0.6287,0.6339,0.6357,0.6383,0.6324,0.6552,0.6575,0.6595,0.6669,0.6698,0.6348,0.6347,0.6346,0.6345,0,0.6181,0.6241,0.6315,0.6334,0.6362,0.6447,0.6399,0.6435,0.6391,0.637,0.6468,0.6468,0.6513,0.6539,0.6499,0.666,0.6628,0.6562,0.646,0.6637,0.6705,0.6733,0.6361,0.6358,0.6355,0.6353,0,0,0.6498,0.6475,0.6504,0.651,0.6507,0.6554,0.6634,0.6672,0.6705,0.6723,0.6791,0.6868,0.6804,0.6827,0.6787,0.6852,0.7022,0.6777,0.6776,0.6825,0.72,0.7253,0.7286,0.6981,0.6986,0.699,0.7199,0,0.6708,0.6839,0.6781,0.692,0.6975,0.688,0.695,0.6958,0.6938,0.6985,0.6965,0.702,0.6932,0.6944,0.7004,0.6988,0.7097,0.6972,0.7048,0.7051,0.705,0.7321,0.7378,0.7576,0.7225,0.723,0.7233,0,0.6972,0.6994,0.7137,0.7121,0.7142,0.7205,0.7234,0.7278,0.7285,0.7266,0.7288,0.7232,0.7312,0.7206,0.7317,0.7233,0.726,0.7257,0.7263,0.7272,0.7156,0.7341,0.7638,0.7669,0.7274,0.7271,0.7268,0,0.7191,0.7257,0.735,0.7359,0.7342,0.7389,0.7385,0.7385,0.7411,0.7437,0.7453,0.7491,0.7512,0.7544,0.7501,0.7427,0.7618,0.7509,0.7609,0.761,0.7658,0.7656,0.7967,0.7669,0.7669,0.7668,0.7667,0,0.7433,0.7525,0.7448,0.7507,0.7606,0.7539,0.7642,0.7628,0.7628,0.7684,0.7604,0.766,0.7597,0.7647,0.7614,0.7712,0.7722,0.7712,0.7703,0.7721,0.7723,0.7742,0.7728,0.7676,0.7674,0.7673,0.7671,0,0.7698,0.7649,0.7745,0.7718,0.7714,0.7789,0.7769,0.7823,0.7795,0.7867,0.788,0.7839,0.7893,0.7851,0.7906,0.7884,0.8013,0.7983,0.801,0.8003,0.8106,0.8099,0.8443,0.8486,0.8158,0.8161,0.8163,0,0.7858,0.7925,0.7904,0.7933,0.7932,0.7981,0.8004,0.794,0.797,0.7979,0.8033,0.8079,0.8113,0.8204,0.8182,0.8223,0.8196,0.8313,0.8203,0.8218,0.8201,0.8199,0.8207,0.8338,0.8342,0.8345,0.8348,0,0.8148,0.8119,0.8154,0.818,0.8209,0.8228,0.8241,0.8271,0.8205,0.8242,0.8293,0.8318,0.8371,0.8419,0.8451,0.8451,0.8391,0.8381,0.8407,0.8429,0.8443,0.8439,0.8075,0.8375,0.8373,0.8371,0.8369,0.8368,0.8367,0.8422,0.8414,0.8455,0.8457,0.847,0.8518,0.8494,0.8534,0.8568,0.8528,0.8592,0.8595,0.863,0.8637,0.8688,0.864,0.8677,0.8687,0.8698,0.8714,0.843,0.8693,0.8692,0.8692,0.8691,0.869,0,0.8655,0.8643,0.8681,0.8699,0.8732,0.8663,0.8673,0.8707,0.8762,0.8767,0.8799,0.8858,0.8903,0.8881,0.8921,0.8966,0.8939,0.8979,0.8978,0.8979,0.8753,0.8728,0.9,0.9,0.9,0.9,0.9,0.9,0.8809,0.8898,0.8868,0.8957,0.8946,0.9003,0.9015,0.9027,0.903,0.9098,0.9132,0.9115,0.911,0.9148,0.9187,0.9179,0.92,0.925,0.9234,0.9025,0.8995,0.8966,0.8942,0.9254,0.9255,0.9455,0.9457,0.9459]},{"header":{"parameterUnit":"m.s-1","parameterCategory":1,"la1":30.2991,"la2":30.254,"lo1":-89.0895,"lo2":-89.0444,"dy":0.0017,"dx":0.0017,"nx":28,"ny":28,"refTime":"2024-07-13T21:00:00:Z","depth":0,"parameterNumber":3,"parameterNumberName":"V-component_of_WINDS"},"data":[0,0,0,0,0,0,0,0,0,0,0,0,0,0,0,0,0,0,0,0,0,0,0,0,0,0,0,0,0,0,0,0,0,0,0,0,0,0,0,0,0,0,0,0,0,0,0,0,0,0,0,0,0,0,0,0,0,0,1.8336,1.8336,0,1.8315,1.8315,1.8315,1.8241,1.8239,1.8238,1.8236,1.8216,1.8217,1.8218,0,0,0,0,0,0,0,0,0,0,0,0,0,1.8316,1.8317,1.8336,1.8336,1.8336,1.8315,1.8315,1.8314,1.8241,1.8239,1.8237,1.8235,1.8215,1.8217,1.8218,0,0,0,0,0,0,0,0,0,0,0,0,0,1.8313,1.8317,1.8336,1.8297,1.8293,1.8315,1.8315,1.8314,1.8242,1.8239,1.8237,1.8234,1.8215,1.8217,1.8218,1.8277,0,0,1.8223,1.8223,0,0,0,0,0,0,0,0,1.8313,1.8314,1.8303,1.83,1.8295,1.8278,1.83,1.8302,1.8242,1.8261,1.8236,1.8233,1.8239,1.8238,1.824,1.8276,1.8275,1.8223,1.8224,1.8224,1.8225,0,0,0,0,0,0,0,1.8314,1.8314,1.8328,1.8303,1.8298,1.8281,1.8278,1.83,1.8264,1.8259,1.8254,1.8252,1.8236,1.8238,1.8239,1.8275,1.8223,1.8224,1.8225,1.8226,1.836,1.8363,0,0,0,0,0,0,1.8319,1.8315,1.8329,1.8327,1.8298,1.8283,1.828,1.8286,1.8264,1.8258,1.8255,1.8249,1.8237,1.8237,1.8238,1.8305,1.8224,1.8226,1.8227,1.8358,1.8361,1.8364,0,0,0,0,0,0,1.8319,1.8321,1.8329,1.832,1.8319,1.8286,1.8294,1.8287,1.8289,1.826,1.8253,1.8263,1.8235,1.8235,1.8268,1.8304,1.8226,1.8228,1.8355,1.8359,1.8362,1.8442,0,0,0,0,0,0,1.8319,1.8322,1.8343,1.8321,1.832,1.836,1.8296,1.8288,1.8292,1.8284,1.8266,1.8261,1.8233,1.8266,1.827,1.8304,1.8229,1.8351,1.8356,1.8361,1.8436,1.8448,1.8458,0,0,0,0,0,1.8318,1.8366,1.8344,1.8346,1.8346,1.8362,1.8362,1.8328,1.8295,1.8316,1.8298,1.8262,1.83,1.827,1.8273,1.8309,1.8349,1.8355,1.8361,1.8431,1.8445,1.8458,0,0,0,0,0,0,1.8393,1.8362,1.8338,1.838,1.8374,1.8349,1.8375,1.8345,1.8348,1.8341,1.83,1.8297,1.8335,1.8326,1.8293,1.8366,1.8318,1.8325,1.837,1.8384,1.8395,1.8396,1.823,0,0,0,0,0,1.8415,1.843,1.8402,1.8442,1.844,1.8409,1.8414,1.8389,1.8381,1.8379,1.8362,1.8357,1.8368,1.8376,1.8384,1.8435,1.843,1.8461,1.8472,1.8482,1.8488,1.8515,1.8528,1.8384,1.8383,1.8383,0,0,1.8459,1.8444,1.8456,1.8457,1.8449,1.8466,1.8407,1.8427,1.8439,1.8382,1.8411,1.84,1.8391,1.8433,1.8451,1.8426,1.8527,1.8489,1.8497,1.8498,1.8522,1.8536,1.8548,1.8388,1.8387,1.8386,0,0,1.8548,1.8539,1.8571,1.8565,1.8554,1.8533,1.8541,1.8522,1.8512,1.8541,1.8498,1.8513,1.8532,1.8528,1.8528,1.8618,1.8585,1.8622,1.8681,1.8707,1.8719,1.8729,1.8761,1.8772,1.8629,1.8629,1.8629,0,1.8605,1.8627,1.8591,1.8614,1.8616,1.8565,1.8598,1.8594,1.8587,1.859,1.8563,1.8587,1.8577,1.8618,1.864,1.8642,1.865,1.8623,1.872,1.8729,1.8738,1.8768,1.878,1.8634,1.8633,1.8633,1.8632,0,1.8697,1.8714,1.8742,1.8736,1.8741,1.8769,1.8738,1.8748,1.8723,1.8705,1.8736,1.8724,1.8729,1.8737,1.8713,1.8775,1.876,1.8727,1.8678,1.8757,1.8785,1.8796,1.864,1.8638,1.8637,1.8636,0,0,1.8831,1.8806,1.8817,1.8814,1.88,1.8812,1.8839,1.8843,1.8853,1.8851,1.8872,1.889,1.886,1.8861,1.8836,1.886,1.8932,1.8824,1.8823,1.8844,1.9,1.9024,1.9038,1.8911,1.8913,1.8914,1.9,0,1.8915,1.8957,1.8926,1.8974,1.899,1.8943,1.8966,1.8961,1.8946,1.8957,1.8941,1.8955,1.8914,1.8914,1.8935,1.8919,1.8963,1.8912,1.893,1.8931,1.8933,1.9052,1.9077,1.9158,1.9011,1.9013,1.9014,0,1.9017,1.902,1.9069,1.9053,1.9058,1.908,1.9082,1.9094,1.9087,1.9075,1.9077,1.9046,1.9072,1.9026,1.9061,1.9027,1.9033,1.9027,1.9029,1.9028,1.8976,1.9054,1.9183,1.9196,1.9031,1.9029,1.9028,0,1.9109,1.9125,1.9157,1.9156,1.9138,1.9154,1.9147,1.9138,1.9143,1.9146,1.9149,1.9156,1.9159,1.9165,1.9138,1.9106,1.9177,1.9128,1.9167,1.9168,1.9183,1.9182,1.9315,1.9189,1.9189,1.9189,1.9188,0,1.9205,1.9237,1.9197,1.9217,1.9252,1.9218,1.9254,1.9242,1.9235,1.9252,1.9213,1.923,1.9194,1.9208,1.9187,1.9219,1.9221,1.9212,1.9206,1.9215,1.9216,1.9217,1.9211,1.9192,1.9191,1.919,1.919,0,1.9312,1.9287,1.9318,1.9299,1.9295,1.9322,1.9306,1.9324,1.9307,1.933,1.9333,1.9307,1.9321,1.9295,1.9306,1.9292,1.9338,1.9324,1.934,1.9335,1.9376,1.9372,1.9513,1.953,1.9395,1.9396,1.9397,0,1.9374,1.9398,1.9382,1.939,1.9386,1.94,1.9406,1.9373,1.9381,1.9376,1.9395,1.9406,1.9413,1.9439,1.9421,1.943,1.9415,1.9464,1.9416,1.9425,1.9415,1.9414,1.9416,1.9473,1.9475,1.9476,1.9477,0,1.9487,1.9474,1.9483,1.9488,1.9496,1.9499,1.9499,1.9508,1.9475,1.9485,1.9499,1.9505,1.9517,1.9529,1.9534,1.9528,1.9497,1.9493,1.9502,1.9511,1.9519,1.9515,1.9366,1.9489,1.9488,1.9487,1.9487,1.9486,1.9573,1.9592,1.9584,1.9596,1.9593,1.9594,1.961,1.9596,1.9607,1.9614,1.9595,1.9614,1.9608,1.9612,1.9609,1.9624,1.9603,1.9617,1.962,1.9624,1.963,1.9518,1.9625,1.9625,1.9625,1.9624,1.9624,0,1.9683,1.9676,1.9687,1.9689,1.9699,1.967,1.9669,1.9679,1.9696,1.9694,1.9702,1.9719,1.9731,1.9715,1.9725,1.974,1.9726,1.9743,1.9741,1.9741,1.9649,1.9639,1.9754,1.9754,1.9754,1.9754,1.9754,1.9754,1.9741,1.9772,1.9759,1.9788,1.9781,1.9799,1.9801,1.9803,1.9801,1.9822,1.9831,1.9821,1.9814,1.9823,1.9833,1.9828,1.9833,1.9855,1.9845,1.976,1.9747,1.9735,1.9725,1.9857,1.9857,1.9936,1.9936,1.9937]}]]